STARLINK-35950, 66622

Orbit data source: Space-Track

STARLINK-35950, 66622 is a payload satellite owned by SpaceX/Seattle (US) in LEO that was launched on Sun, 23 Nov 2025 UTC via an FALCON 9 launch vehicle from the Air Force Western Test Range (AFWTR). Payload-class satellites include a variety of spacecraft equipped with specific instruments for various scientific and technological missions. These include communications satellites like Starlink; space stations such as the ISS; scientific satellites like the Hubble; Earth observation satellites from companies like Planet Labs, Umbra, and HawkEye 360; GPS; miniature CubeSats for education and research; and military/defense satellites.

Loading next visibility...
Identifier
66622, 2025-271F
Orbit
LEO
Country
Flag of USUS
Related business
Manufacturer
SpaceX/Seattle
Mission
Operational Commercial Communications
Bus & Motor
STARLINK V2MO, Unknown motor
Mass
575 kg wet, ~530 kg dry
Launch date (UTC)
2025-11-23 (7 months ago)
Launch vehicle
FALCON 9
Launch site
Air Force Western Test Range (AFWTR)
Object type
Payload
Rocket body
Debris
Shape & HBR
Box + 2 Pan, 17.7 m
Radar Cross Section
36.964 m², Large (>1 m²)

Expand to show TLE details & history
Last TLE update: 3 days ago

TLE from 3 days ago
0 STARLINK-35950
1 66622U 25271F   26171.29359506  .00018289  00000-0  62767-3 0  9994
2 66622  53.1597  23.5022 0001414  77.2104 282.9055 15.30221488 33279
Epoch: 2026-06-20T07:02Z
TLE epoch observation values (Epoch: 2026-06-20T07:02:46.613Z)
Latitude
0.00002°
Longitude
9.2977°
Altitude
475.834 km
Speed
7.629 km/s
True Right ascension
01h 34m 00s
True Declination
0° 00' 00"
Sunlit
Object was in daylight at epoch
Visualization orbit readout
Latitude
Unknown
Longitude
Unknown
Altitude
Unknown
Speed
Unknown
Apparent Right ascension
Unknown
Apparent Declination
Unknown
Sunlit
N/A
Visualization observer readout
Local Sidereal Time
08:52:34
Azimuth
Unknown
Elevation
Unknown
Doppler factor
Unknown
Orbital elements
Apogee altitude
476.376 km
Perigee altitude
474.438 km
Semi-major axis
6,853.544 km
Eccentricity
0.00014
Inclination
53.1597°
RAAN
23.5022°
Arg. of periapsis
77.2104°
True anomaly
282.88971°
Mean anomaly
282.9055°
Eccentric anomaly
282.8976°
Mean motion
3.82534 °/min
Orbital period
94.11 mins
BSTAR
0.00062767
Loading maneuver chart data...
Computing Atmospheric mass density...
Loading historical data...
Loading historical data...
Loading historical data...
Loading historical data...
Loading historical data...
Loading historical data...
Loading historical data...

Documentation

Showing up to 5 results
|